Linton Municipal Airport, ND

11:05 PM CDT on April 28, 2017 (GMT -0500)
Linton Municipal Airport

Weather History for K7L2 - December, 2013

Change the Weather History Date:

Saturday, December 7, 2013

  Actual Average (KBIS) Record (KBIS)
Temperature  
Mean Temperature -18 °F -  
Max Temperature -9 °F 27 °F 57 °F (1918)
Min Temperature -27 °F 7 °F -28 °F (1972)
Degree Days  
Heating Degree Days 83    
Moisture  
Dew Point -24 °F    
Average Humidity 73    
Maximum Humidity 84    
Minimum Humidity 59    
Precipitation  
Precipitation 0.00 in - - ()
Sea Level Pressure  
Sea Level Pressure 30.48 in    
Wind  
Wind Speed 7 mph (SW)    
Max Wind Speed 10 mph    
Max Gust Speed -    
Visibility 10 miles    
Events      
Averages and records for this station are not official NWS values.
T = Trace of Precipitation, MM = Missing Value Source: NWS Daily Summary

Daily Weather History Graph

Daily Weather History Graph

Search for Another Location

Airport or City:

Trip Planner

Search our weather history database for the weather conditions in past years. The results will help you decide how hot, cold, wet, or windy it might be!

Date:

Astronomy

Dec. 07, 2013 Rise Set
Actual Time 8:10 AM CST 4:54 PM CST
Civil Twilight 7:35 AM CST 5:29 PM CST
Nautical Twilight 6:57 AM CST 6:07 PM CST
Astronomical Twilight 6:21 AM CST 6:43 PM CST
Moon 11:44 AM CST (12/7) 10:52 PM CST (12/7)
Length of Visible Light 9h 53m
Length of Day
8h 44m
Waxing Crescent, 29% of the Moon is Illuminated
Dec 7
Waxing Crescent
Dec 9
First Quarter
Dec 17
Full
Dec 25
Last Quarter
Jan 1
New

Hourly Weather History & Observations

Time (CST) Temp. Windchill Dew Point Humidity Pressure Visibility Wind Dir Wind Speed Gust Speed Precip Events Conditions
12:35 AM -16.6 °F -36.8 °F -22.0 °F 76% 30.58 in 10.0 mi West 10.4 mph - N/A   Clear
12:55 AM -16.6 °F -36.8 °F -22.0 °F 76% 30.57 in 10.0 mi West 10.4 mph - N/A   Clear
1:15 AM -16.6 °F -36.8 °F -22.0 °F 76% 30.56 in 10.0 mi WNW 10.4 mph - N/A   Clear
1:35 AM -18.4 °F -36.6 °F -23.8 °F 76% 30.56 in 10.0 mi West 8.1 mph - N/A   Clear
1:55 AM -20.2 °F -37.3 °F -25.6 °F 76% 30.56 in 10.0 mi West 6.9 mph - N/A   Clear
2:15 AM -20.2 °F -40.1 °F -25.6 °F 76% 30.57 in 10.0 mi West 9.2 mph - N/A   Clear
2:35 AM -20.2 °F -41.3 °F -25.6 °F 76% 30.57 in 10.0 mi West 10.4 mph - N/A   Clear
2:55 AM -20.2 °F -40.1 °F -25.6 °F 76% 30.57 in 10.0 mi West 9.2 mph - N/A   Clear
3:15 AM -20.2 °F -37.3 °F -27.4 °F 69% 30.57 in 10.0 mi WSW 6.9 mph - N/A   Clear
3:35 AM -20.2 °F -38.8 °F -27.4 °F 69% 30.56 in 10.0 mi West 8.1 mph - N/A   Clear
3:55 AM -22.0 °F -41.0 °F -29.2 °F 69% 30.56 in 10.0 mi WSW 8.1 mph - N/A   Clear
4:15 AM -22.0 °F -39.4 °F -27.4 °F 76% 30.56 in 10.0 mi SW 6.9 mph - N/A   Clear
4:35 AM -23.8 °F -41.6 °F -29.2 °F 76% 30.56 in 10.0 mi WSW 6.9 mph - N/A   Clear
4:55 AM -22.0 °F -37.7 °F -27.4 °F 76% 30.56 in 10.0 mi West 5.8 mph - N/A   Clear
5:15 AM -20.2 °F -33.5 °F -27.4 °F 69% 30.55 in 10.0 mi WNW 4.6 mph - N/A   Clear
5:35 AM -22.0 °F -35.6 °F -27.4 °F 76% 30.55 in 10.0 mi WNW 4.6 mph - N/A   Clear
5:55 AM -22.0 °F -33.0 °F -29.2 °F 69% 30.55 in 10.0 mi WSW 3.5 mph - N/A   Clear
6:15 AM -23.8 °F -35.0 °F -29.2 °F 76% 30.56 in 10.0 mi WSW 3.5 mph - N/A   Clear
6:35 AM -25.6 °F -43.8 °F -31.0 °F 76% 30.56 in 10.0 mi West 6.9 mph - N/A   Clear
6:55 AM -27.4 °F -39.2 °F -34.6 °F 69% 30.56 in 10.0 mi WSW 3.5 mph - N/A   Clear
7:15 AM -25.6 °F -45.4 °F -31.0 °F 76% 30.55 in 10.0 mi West 8.1 mph - N/A   Clear
7:35 AM -25.6 °F -41.9 °F -31.0 °F 76% 30.55 in 10.0 mi West 5.8 mph - N/A   Clear
7:55 AM -27.4 °F -47.6 °F -31.0 °F 83% 30.55 in 10.0 mi West 8.1 mph - N/A   Clear
8:15 AM -27.4 °F -47.6 °F -34.6 °F 69% 30.55 in 10.0 mi West 8.1 mph - N/A   Clear
8:35 AM -25.6 °F -41.9 °F -29.2 °F 83% 30.55 in 10.0 mi West 5.8 mph - N/A   Clear
8:55 AM -25.6 °F -41.9 °F -31.0 °F 76% 30.55 in 10.0 mi West 5.8 mph - N/A   Clear
9:15 AM -22.0 °F -39.4 °F -27.4 °F 76% 30.55 in 10.0 mi SW 6.9 mph - N/A   Clear
9:35 AM -20.2 °F -33.5 °F -25.6 °F 76% 30.56 in 10.0 mi SW 4.6 mph - N/A   Clear
9:55 AM -18.4 °F -31.4 °F -23.8 °F 76% 30.57 in 10.0 mi SW 4.6 mph - N/A   Clear
10:15 AM -16.6 °F -32.9 °F -22.0 °F 76% 30.57 in 10.0 mi West 6.9 mph - N/A   Clear
10:35 AM -16.6 °F -34.4 °F -22.0 °F 76% 30.56 in 10.0 mi West 8.1 mph - N/A   Clear
10:55 AM -14.8 °F -34.6 °F -22.0 °F 70% 30.56 in 10.0 mi WNW 10.4 mph - N/A   Clear
11:15 AM -14.8 °F -33.5 °F -22.0 °F 70% 30.56 in 10.0 mi West 9.2 mph - N/A   Clear
11:35 AM -13.0 °F -30.0 °F -22.0 °F 64% 30.55 in 10.0 mi West 8.1 mph - N/A   Clear
11:55 AM -13.0 °F -31.3 °F -22.0 °F 64% 30.53 in 10.0 mi WNW 9.2 mph - N/A   Clear
12:15 PM -13.0 °F -28.6 °F -20.2 °F 70% 30.52 in 10.0 mi West 6.9 mph - N/A   Clear
12:35 PM -11.2 °F -24.8 °F -20.2 °F 64% 30.52 in 10.0 mi West 5.8 mph - N/A   Clear
12:55 PM -11.2 °F -24.8 °F -20.2 °F 64% 30.52 in 10.0 mi West 5.8 mph - N/A   Clear
1:15 PM -9.4 °F -24.3 °F -20.2 °F 59% 30.51 in 10.0 mi SW 6.9 mph - N/A   Clear
1:35 PM -9.4 °F -22.7 °F -20.2 °F 59% 30.50 in 10.0 mi SW 5.8 mph - N/A   Clear
1:55 PM -9.4 °F -22.7 °F -20.2 °F 59% 30.49 in 10.0 mi WSW 5.8 mph - N/A   Clear
2:15 PM -9.4 °F -24.3 °F -18.4 °F 65% 30.48 in 10.0 mi SW 6.9 mph - N/A   Clear
2:35 PM -9.4 °F -22.7 °F -18.4 °F 65% 30.47 in 10.0 mi SW 5.8 mph - N/A   Clear
2:55 PM -9.4 °F -18.6 °F -18.4 °F 65% 30.46 in 10.0 mi SSW 3.5 mph - N/A   Clear
3:15 PM -9.4 °F -18.6 °F -18.4 °F 65% 30.45 in 10.0 mi WSW 3.5 mph - N/A   Clear
3:35 PM -9.4 °F -20.9 °F -18.4 °F 65% 30.45 in 10.0 mi SSW 4.6 mph - N/A   Clear
3:55 PM -11.2 °F -23.0 °F -20.2 °F 64% 30.44 in 10.0 mi SW 4.6 mph - N/A   Clear
4:15 PM -13.0 °F -25.1 °F -22.0 °F 64% 30.43 in 10.0 mi SW 4.6 mph - N/A   Clear
4:35 PM -14.8 °F -27.2 °F -22.0 °F 70% 30.43 in - SSW 4.6 mph - N/A   Clear
4:55 PM -16.6 °F -29.3 °F -23.8 °F 70% 30.42 in - SSW 4.6 mph - N/A   Clear
5:15 PM -13.0 °F -22.7 °F -20.2 °F 70% 30.42 in - SE 3.5 mph - N/A   Clear
5:35 PM -16.6 °F -26.8 °F -23.8 °F 70% 30.41 in 10.0 mi East 3.5 mph - N/A   Clear
5:55 PM -16.6 °F -26.8 °F -22.0 °F 76% 30.41 in 10.0 mi SSE 3.5 mph - N/A   Clear
6:15 PM -16.6 °F -31.3 °F -22.0 °F 76% 30.40 in - SE 5.8 mph - N/A   Unknown
6:35 PM -14.8 °F -29.1 °F -20.2 °F 77% 30.40 in - SSE 5.8 mph - N/A   Clear
6:55 PM -18.4 °F -28.9 °F -23.8 °F 76% 30.39 in - ESE 3.5 mph - N/A   Unknown
7:15 PM -20.2 °F -33.5 °F -25.6 °F 76% 30.39 in 10.0 mi ESE 4.6 mph - N/A   Clear
7:35 PM -18.4 °F -33.4 °F -22.0 °F 84% 30.38 in 10.0 mi SSE 5.8 mph - N/A   Clear
7:55 PM -18.4 °F -36.6 °F -23.8 °F 76% 30.38 in 10.0 mi SSE 8.1 mph - N/A   Clear
8:15 PM -18.4 °F -37.9 °F -22.0 °F 84% 30.38 in - South 9.2 mph - N/A   Unknown
8:35 PM -20.2 °F -30.9 °F -27.4 °F 69% 30.37 in 10.0 mi SE 3.5 mph - N/A   Clear
8:55 PM -20.2 °F -35.5 °F -27.4 °F 69% 30.37 in 10.0 mi SSE 5.8 mph - N/A   Mostly Cloudy
9:15 PM -20.2 °F -30.9 °F -25.6 °F 76% 30.36 in 10.0 mi South 3.5 mph - N/A   Overcast
9:35 PM -16.6 °F -29.3 °F -20.2 °F 84% 30.36 in 10.0 mi SSE 4.6 mph - N/A   Overcast
9:55 PM -16.6 °F -26.8 °F -22.0 °F 76% 30.36 in 10.0 mi ESE 3.5 mph - N/A   Mostly Cloudy
10:15 PM -16.6 °F - -22.0 °F 76% 30.35 in 10.0 mi Calm Calm - N/A   Mostly Cloudy
10:35 PM -11.2 °F -24.8 °F -16.6 °F 77% 30.35 in 9.0 mi SSE 5.8 mph - N/A   Overcast
10:55 PM -11.2 °F -24.8 °F -16.6 °F 77% 30.34 in - SSE 5.8 mph - N/A   Overcast
11:15 PM -11.2 °F -23.0 °F -16.6 °F 77% 30.33 in - SSE 4.6 mph - N/A   Overcast
11:35 PM -13.0 °F -22.7 °F -18.4 °F 77% 30.32 in 10.0 mi SE 3.5 mph - N/A   Overcast
11:55 PM -14.8 °F -27.2 °F -20.2 °F 77% 30.32 in 10.0 mi ESE 4.6 mph - N/A   Overcast